Regional Weather Roundup
Issued by NWS

Home | Current Version | Previous Version | Text Only | Print | Product List | Glossary On
Versions: 1 2 3 4 5 6 7 8 9 10 11 12 13 14 15 16 17 18 19 20 21 22 23 24 25 26 27 28 29 30 31 32 33 34 35 36 37 38 39 40 41 42 43 44 45 46 47 48 49 50
000
ASUS43 KTOP 261859
RWRKS

WEATHER ROUNDUP FOR KANSAS
NATIONAL WEATHER SERVICE GOODLAND KS
200 PM CDT TUE JUL 26 2016

NOTE:  "FAIR" INDICATES FEW OR NO CLOUDS BELOW 12,000 FEET WITH NO
SIGNIFICANT WEATHER AND/OR OBSTRUCTIONS TO VISIBILITY.

KSZ001>006-013>018-027>032-041>047-262000-
NORTHWEST KANSAS

CITY           SKY/WX    TMP DP  RH WIND       PRES   REMARKS
GOODLAND       SUNNY     84  67  56 S16G22    30.08F
HAYS           MOSUNNY   84  64  51 SE10      30.06F
HILL CITY      SUNNY     87  67  51 SE9       30.05F
RUSSELL        MOSUNNY   87  66  49 E9        30.04F
$$

KSZ061>065-074>080-084>089-262000-
SOUTHWEST KANSAS

CITY           SKY/WX    TMP DP  RH WIND       PRES   REMARKS
DODGE CITY     MOSUNNY   85  68  56 SE9       30.07F
ELKHART          N/A     88  69  53 SE8         N/A
GARDEN CITY    MOSUNNY   86  70  58 SE10      30.07F
GREAT BEND     PTSUNNY   84  66  54 SE9       30.05F
LIBERAL        MOSUNNY   88  70  55 SE10      30.07F
$$

KSZ066>073-081>083-090>101-262000-
SOUTHEAST KANSAS

CITY           SKY/WX    TMP DP  RH WIND       PRES   REMARKS
CHANUTE        CLOUDY    86  73  65 NE7       30.01F
COFFEYVILLE    PTSUNNY   89  75  63 E8        29.98F HX  99
HUTCHINSON     PTSUNNY   89  70  53 SE9       30.04F
NEWTON         PTSUNNY   85  73  67 E8        30.05F
PARSONS        CLOUDY    87  75  67 CALM      30.01F HX  96
WICHITA INTL   PTSUNNY   89  71  55 E10       30.01F HX  95
WICHITA JABRA  PTSUNNY   87  72  60 E10       30.02F
WINFIELD       MOSUNNY   86  72  62 E8        30.01F
$$

KSZ007>012-019>026-033>040-048>060-102>105-262000-
NORTHEAST KANSAS

CITY           SKY/WX    TMP DP  RH WIND       PRES   REMARKS
CONCORDIA      MOSUNNY   83  68  60 SE5       30.05F
EMPORIA        MOSUNNY   84  69  60 NE10      30.04F
LAWRENCE       MOSUNNY   87  68  52 E8        30.03F
MANHATTAN      SUNNY     86  68  54 NE7       30.03F
OLATHE IND     CLOUDY    85  67  54 SE8       30.05F
OLATHE EXE     MOSUNNY   83  64  52 SE7       30.05F
SALINA         PTSUNNY   89  68  49 E9        30.04F
TOPEKA BILLARD SUNNY     86  66  51 VRB5      30.03F
TOPEKA FORBES  SUNNY     88  67  49 SE9       30.04F
$$




USA.gov is the U.S. government's official web portal to all federal, state and local government web resources and services.